Location: Andershausen
(51.8462°N, 9.8595°E)
Time: 09:41:19
(UTC+00:00)

Cosmos 1400 Rocket - Pass Details

Date: 18 November 2025
Orbit: 476 x 514 km, 81.1° (Epoch: 11 December)

Event Time Altitude Azimuth Distance (km) Brightness Sun altitude
Rises 17:04:28 0° 168° (SSE) 2,619 6.3 -14.9°
Reaches altitude 10° 17:06:44 10° 159° (SSE) 1,733 5.3 -15.3°
Maximum altitude 17:10:10 33° 94° (E) 870 3.3 -15.8°
Enters shadow 17:10:34 33° 81° (E) 886 3.3 -15.9°
